Location: Beetenbrück
(52.8113°N, 9.5946°E)
Time: 16:20:11
(UTC+00:00)

Cosmos 2242 Rocket - Pass Details

Date: 14 April 2026
Orbit: 612 x 645 km, 82.5° (Epoch: 9 May)

Event Time Altitude Azimuth Distance (km) Brightness Sun altitude
Rises 20:01:03 0° 348° (NNW) 2,953 7.9 -14.4°
Reaches altitude 10° 20:03:19 10° 349° (NNW) 2,034 7.0 -14.6°
Maximum altitude 20:07:50 88° 264° (W) 639 3.6 -15.2°
Enters shadow 20:11:03 19° 172° (S) 1,513 5.1 -15.5°
